metlocid,date_time,avg_rh,std_rh,min_rh,max_rh,n_rh,avg_rh1m,std_rh1m,min_rh1m,max_rh1m,n_rh1m,n_comments
TARM,11/1/94,69.00899109,14.76161059,22.5,92.64,674,,,,,0,0
TARM,12/1/94,55.33005379,19.36198678,21.5,94.23,2232,,,,,0,0
TARM,1/1/95,58.40718584,19.6615824,21.3,100,2228,,,,,0,0
TARM,2/1/95,55.44515382,24.11618031,20.33,100,2016,,,,,0,0
TARM,3/1/95,63.15528221,18.72830612,28.3,95.52,2232,,,,,0,0
TARM,4/1/95,61.83875465,20.28388529,30.94,95.11,2160,,,,,0,0
TARM,5/1/95,59.89829296,20.07610912,30.67,87.03,2232,,,,,0,0
TARM,6/1/95,48.24249073,16.18968292,26.21,91.62,2160,,,,,0,0
TARM,7/1/95,51.62309588,16.2933175,26.85,94.69,2232,,,,,0,0
TARM,8/1/95,48.48503138,15.79021236,26.28,86.34,2232,,,,,0,0
TARM,9/1/95,54.61277777,17.2547358,28.84,93.06,2160,,,,,0,0
TARM,10/1/95,51.13152338,17.63457249,27.72,94.94,2232,,,,,0,0
TARM,11/1/95,41.9573487,14.80430498,22.28,99.71,2478,40.38885091,13.45451319,22.26,91.66,1288,0
TARM,12/1/95,59.71698522,15.61728654,25.54,100,2972,52.53527253,14.39899113,22.15,94.99,2972,0
TARM,1/1/96,61.27848352,16.6588473,27.6,98.51,2974,53.45968728,14.88051618,23.3,88.77,2974,0
TARM,2/1/96,56.86289155,11.85790069,30.32,93.78,2784,50.24609195,11.36315557,23.88,84.26,2784,0
TARM,3/1/96,64.49259076,23.24835756,22.7,98.75,2976,56.94389793,19.72491374,21.8,87.87,2976,0
TARM,4/1/96,59.63170143,21.59198726,27.62,100,2880,52.11110067,18.93478747,24.68,89.21,2880,0
TARM,5/1/96,64.06190522,15.4152505,37.55,96.64,2976,56.38736896,13.57808867,33.34,86.13,2976,0
TARM,6/1/96,58.71726991,17.86829761,30.11,95.24,2879,51.90162903,14.55606955,29.51,80.31,2879,0
TARM,7/1/96,47.27054435,12.20683787,27.93,83.65,2976,43.24988912,8.895459981,27.92,72.19,2976,0
TARM,8/1/96,53.74473454,18.69299362,24.8,97.09,2976,47.54220434,15.62723983,22.97,86.96,2976,0
TARM,9/1/96,57.00727431,15.11987929,33.08,94.25,2880,50.83747915,12.44301563,31.97,81.11,2880,0
TARM,10/1/96,56.76725133,16.25730514,30.91,95.08,2976,47.91131048,13.26788122,28.49,80.9,2976,0
TARM,11/1/96,52.93266668,18.52445629,21.1,100,2880,45.95589232,15.92164921,21,95.89,2880,0
TARM,12/1/96,52.63468754,16.17422188,21.1,100,2976,45.82417339,15.19039883,19.9,95.36,2976,0
TARM,1/1/97,64.52352487,19.29040859,26.23,100,2976,56.11033602,17.81610227,23.5,94.51,2976,0
TARM,2/1/97,59.69533111,19.21798101,24.18,100,2688,51.1526004,17.59788992,21.4,95.15,2688,0
TARM,3/1/97,66.33908604,19.81035171,30.36,99.63,2976,58.27976148,16.4175724,28.93,89.09,2976,0
TARM,4/1/97,62.28133678,20.13161699,34.64,99.82,2880,55.49634031,16.94510705,30.36,87.01,2880,0
TARM,5/1/97,49.33806115,15.86081357,25.46,98.34,2976,44.5105948,13.10216541,25.54,86.35,2976,0
TARM,6/1/97,50.76767708,18.72626791,28.04,98.48,2880,45.17469446,14.9634723,26.65,85.59,2880,0
TARM,7/1/97,53.51567202,14.18181253,33.62,87.6,2976,48.02518149,10.02490235,33.49,74.57,2976,0
TARM,8/1/97,55.6347782,13.61305564,31.71,91.51,2976,49.86841734,10.30438913,30.35,76.89,2976,0
TARM,9/1/97,52.92796872,15.62822669,26.25,91.27,2880,46.3989792,11.78599259,23.83,81.46,2880,0
TARM,10/1/97,55.08118278,20.40807964,25.97,100,2976,47.38457662,17.59795841,25.11,90.33,2976,0
TARM,11/1/97,45.88324245,20.9205183,20.8,100,2862,46.13168823,22.29975743,21.6,100,2861,0
TARM,12/1/97,68.36021502,21.52313059,23.5,100,2976,75.44493282,17.04041733,30.34,100,2976,0
TARM,1/1/98,67.06431788,18.89564275,25.4,100,2976,75.01846435,14.64900164,34.56,100,2976,0
TARM,2/1/98,62.57858258,23.38938561,23.73,100,2688,70.61855663,19.0852386,28.02,100,2688,0
TARM,3/1/98,60.04464048,18.58931204,34.29,100,2976,70.33991929,14.29215564,44.02,100,2976,0
TARM,4/1/98,59.5339062,17.28804139,26.68,100,2880,69.2357361,14.97969232,31.22,98.46,2880,0
TARM,5/1/98,57.40492611,19.0564286,29.83,99.02,2976,66.85990928,16.23697328,34.45,96.62,2976,0
TARM,6/1/98,53.06361456,20.89797104,26.48,100,2880,62.12937846,18.25271422,27.22,100,2880,0
TARM,7/1/98,52.66955643,19.20437976,28.48,100,2976,61.03172376,17.11693844,29.74,97.08,2976,0
TARM,8/1/98,52.84506385,14.50865949,23.5,88.81,2976,62.70872312,13.9858244,24.59,90.28,2976,0
TARM,9/1/98,59.5899237,13.72516788,30.8,91.5,2880,68.42962847,11.30542505,41.01,92.92,2880,0
TARM,10/1/98,54.27378023,21.10544075,24.87,100,2976,62.37516464,18.66525316,26.08,100,2976,0
TARM,11/1/98,50.0757847,16.45423292,24.35,97.1,2880,59.06295484,14.5001454,29.49,97.2,2880,0
TARM,12/1/98,51.07997651,21.26086165,20.1,100,2976,58.27775532,20.33419088,22.5,100,2976,0
TARM,1/1/99,60.89723511,21.07685545,23.1,100,2973,67.08216284,19.57126854,28.3,100,2973,0
TARM,2/1/99,65.39101942,16.74517585,30.9,95.3,2688,69.56011531,18.12836776,31.48,100,2688,0
TARM,3/1/99,63.61736899,9.488540219,41.21,91.42,2976,67.29672719,9.476436142,45.79,96.98,2976,0
TARM,4/1/99,67.02823615,10.15972776,40.36,85.63,2880,69.89914931,9.97366472,43.03,90,2880,0
TARM,5/1/99,55.2304973,12.92714466,31.05,94.68,2976,57.59126682,12.56481392,32.1,98.56,2976,0
TARM,6/1/99,61.44307293,18.91033959,29.18,95.7,2880,64.61819098,19.58301022,30.96,97.28,2880,0
TARM,7/1/99,54.35544356,15.90659307,30.12,96.52,2976,56.3852688,15.69488546,31.24,98.63,2976,0
TARM,8/1/99,58.06513442,14.45886452,29.42,89.96,2976,60.38943889,14.40872303,30.58,92.87,2976,0
TARM,9/1/99,61.60644443,17.48832675,27.49,97.39,2880,64.29199998,17.7218871,29.49,100,2880,0
TARM,10/1/99,50.31237234,16.3058055,23.75,95.56,2976,54.35754036,16.67040174,24.57,99.16,2976,0
TARM,11/1/99,53.74614237,16.99962271,25.33,95.29,2880,57.81106945,18.11337979,27.36,100,2880,0
TARM,12/1/99,51.56050734,16.55316529,21.7,93.98,2976,56.03845433,17.64229619,22.9,100,2976,0
TARM,1/1/00,55.38914929,18.33104761,21.5,97.64,2974,59.26037398,19.62592084,15.25,100,2888,0
TARM,2/1/00,52.36125005,18.26968155,25.59,100,2784,52.78385418,18.6141275,25.81,100,2784,0
TARM,3/1/00,62.52826279,19.82313244,31.74,98.1,2976,63.5290558,20.78278188,31.91,100,2976,0
TARM,4/1/00,59.38036451,16.24569126,32.85,100,2853,60.01550999,16.8485032,33.02,100,2853,0
TARM,5/1/00,62.54775177,18.79392255,28.28,99.54,2949,63.44408956,19.55025299,28.38,100,2949,0
TARM,6/1/00,60.87342361,17.07525373,29.03,96.69,2880,61.79287506,17.8198069,29.22,100,2880,0
TARM,7/1/00,49.73826952,18.44880875,26.58,90.16,2976,50.26349799,19.04886393,26.8,100,2976,0
TARM,8/1/00,51.33079302,17.57698076,27.49,93.77,2976,51.83978829,18.0731819,27.61,100,2976,0
TARM,9/1/00,50.33061806,17.96830708,25.85,94.68,2880,50.89279168,18.52410185,25.94,100,2880,0
TARM,10/1/00,63.0343717,17.6960563,29.7,96.74,2976,64.08093086,18.74002826,29.83,100,2976,0
TARM,11/1/00,54.82583193,21.11583343,26,100,2879,55.30649532,21.2973579,26.66,100,2879,0
TARM,12/1/00,62.11585346,16.91286545,21.9,100,2976,62.4646942,17.04345,19.1,100,2976,0
TARM,1/1/01,65.56533883,21.49421911,15.2,100,2302,66.13265425,21.2577903,18.4,100,2302,0
TARM,2/1/01,60.77186011,19.47672769,23.2,100,2688,60.9282254,19.4330033,23.67,100,2688,0
TARM,3/1/01,65.57066872,22.95455011,15.84,100,2976,65.91353158,22.96330481,15.88,100,2976,0
TARM,4/1/01,65.10934371,24.69391045,14.91,100,2880,65.34031943,24.70850341,14.98,100,2880,0
TARM,5/1/01,57.13277218,23.63411947,11.93,100,2976,57.4033737,23.74614952,11.97,100,2976,0
TARM,6/1/01,59.35652427,21.53258765,20.38,100,2880,59.62005557,21.60676976,20.54,100,2880,0
TARM,7/1/01,54.58055106,17.7164707,14.27,100,2976,54.87837694,17.81183126,14.38,100,2976,0
TARM,8/1/01,68.38561155,20.63762796,13.4,100,2976,68.82123321,20.69641613,13.44,100,2976,0
TARM,9/1/01,59.2115486,22.01573064,16.13,100,2880,59.63102084,22.11261165,16.22,100,2880,0
TARM,10/1/01,54.6311727,17.74305742,20.97,100,2976,54.90091066,17.85980366,21,100,2976,0
TARM,11/1/01,53.55821058,14.53898272,18.36,93.83,2878,53.68036147,14.56918457,18.38,94.1,2877,0
TARM,12/1/01,50.56609879,15.31567745,15,91.8,2976,51.79431785,14.73160743,16.7,91.69,2976,0
TARM,1/1/02,60.25761422,24.61418126,16,100,2976,61.75753022,23.48095027,19.4,100,2976,0
TARM,2/1/02,59.52578874,16.99361082,19.88,100,2688,59.74655134,17.06691139,19.98,100,2688,0
TARM,3/1/02,60.10709009,21.97512985,18.26,100,2976,60.35052419,22.01216944,18.31,100,2976,0
TARM,4/1/02,63.53858334,21.6105189,26.13,100,2880,64.02394093,21.85218208,26.26,100,2880,0
TARM,5/1/02,57.75105176,20.13770249,16.8,100,2976,58.08574595,20.28271205,16.87,100,2976,0
TARM,6/1/02,70.90834726,23.39865425,10.75,100,2880,71.32683334,23.53607042,10.8,100,2880,0
TARM,7/1/02,54.39865258,21.71049343,13.47,100,2976,54.77320901,21.83511818,13.53,100,2976,0
TARM,8/1/02,62.04577957,20.41990501,28.68,100,2976,62.45324935,20.54353209,28.78,100,2976,0
TARM,9/1/02,67.42773264,22.61504826,21.4,100,2880,67.80613891,22.6705482,21.51,100,2880,0
TARM,10/1/02,66.02258063,21.61311047,22.99,100,2976,66.33671702,21.68823688,23.3,100,2976,0
TARM,11/1/02,71.00986459,21.7932181,28.3,100,1551,72.51486401,22.24634169,28.41,100,1618,0
TARM,12/1/02,63.49258536,21.03758059,16.6,100,2607,63.50419219,20.90729742,17.31,100,2612,0
TARM,1/1/03,69.92554432,18.06730648,24.03,100,2976,70.59940522,17.27715045,23.91,100,2976,0
TARM,2/1/03,69.61370166,19.13868721,28.82,100,2688,69.56847843,19.10418078,28.88,100,2688,0
TARM,3/1/03,70.31673387,19.83078962,28.84,100,2976,70.60684139,19.90454784,28.93,100,2976,0
TARM,4/1/03,70.95301734,19.88014928,27.57,100,2880,71.38770831,19.91427099,27.69,100,2880,0
TARM,5/1/03,53.90557125,21.62623632,14.99,100,2976,54.14094426,21.74926948,15.04,100,2976,0
TARM,6/1/03,62.35363192,21.62312229,14.29,100,2880,62.61746874,21.6227988,14.34,100,2880,0
TARM,7/1/03,52.11849464,16.06395067,24.78,100,2976,52.37563845,16.1423886,24.88,100,2976,0
TARM,8/1/03,64.57652213,21.2751094,14.59,100,2976,64.93495292,21.3266415,14.66,100,2976,0
TARM,9/1/03,62.44684723,24.65405944,11.94,100,2880,62.65083333,24.69529959,11.98,100,2880,0
TARM,10/1/03,53.70740927,19.59319202,18.36,100,2976,53.73654232,19.57136109,18.38,100,2976,0
TARM,11/1/03,61.76002777,14.65239095,25.51,100,2880,61.65834724,14.64927748,25.58,100,2880,0
TARM,12/1/03,60.79919693,21.81929503,15.6,100,2976,61.64525198,20.80832224,18.4,100,2976,0
TARM,1/1/04,70.37597787,15.97952734,23.6,100,2976,70.62304098,15.7512548,28.9,100,2976,0
TARM,2/1/04,64.99973427,19.01615721,20.97,99.93,2784,67.18520119,18.34621693,24.24,99.95,2784,0
TARM,3/1/04,73.99434154,18.29178499,21.77,99.97,2976,77.82760765,15.92294386,26.77,99.98,2976,0
TARM,4/1/04,63.3693647,21.10557057,24.89,99.98,2880,67.25547928,19.50994179,27.45,99.97,2880,0
TARM,5/1/04,62.47691203,19.47274423,24.64,99.9,2976,66.38484215,18.27561563,28.23,99.96,2976,0
TARM,6/1/04,55.69637852,25.23264444,11.04,99.92,2880,59.28283683,24.10034289,12.81,99.98,2880,0
TARM,7/1/04,59.48129703,24.81104721,10.94,99.9,2976,62.60498314,23.16349224,14.16,99.93,2976,0
TARM,8/1/04,53.71646514,26.7632969,8.98,99.95,2976,57.04459348,25.50240825,11.75,99.91,2976,0
TARM,9/1/04,67.52862859,24.76031856,12.93,99.98,2880,70.44853483,23.23803227,15.46,99.96,2880,0
TARM,10/1/04,61.46493614,18.34575643,15.8,99.9,2976,64.02866599,17.60389804,19.02,99.9,2976,0
TARM,11/1/04,50.63969099,17.08635364,15.88,97.75,2880,53.96364585,16.07431241,19.61,98.4,2880,0
TARM,12/1/04,63.10349133,20.050245,16.64,99.96,2976,63.99214126,18.17850331,20.23,99.91,2975,0
TARM,1/1/05,67.99525205,17.28706213,22.99,99.96,2976,67.94407593,16.45169053,25.9,99.91,2976,0
TARM,2/1/05,68.31920773,21.16535831,24.63,99.93,2688,70.17788326,19.25429002,26.64,99.9,2688,0
TARM,3/1/05,63.6464617,17.43985191,24.72,99.9,2976,67.73051752,16.07718756,28.5,99.9,2976,0
TARM,4/1/05,71.89819803,21.64779386,31.42,99.98,2880,74.99779528,20.05699932,33.88,99.98,2880,0
TARM,5/1/05,58.43263113,22.45544838,21.32,99.98,2976,61.91575285,21.57278419,25.05,99.98,2976,0
TARM,6/1/05,65.52264938,23.45852817,15.49,99.93,2880,68.6427363,22.33506023,17.95,99.98,2880,0
TARM,7/1/05,62.47994626,21.64347574,15.47,99.98,2976,66.11842748,20.83650946,17.21,99.98,2976,0
TARM,8/1/05,64.91637778,23.4971314,14.8,99.9,2976,67.58781585,22.31603973,16.33,99.98,2976,0
TARM,9/1/05,48.87319444,18.5850505,11.17,99,2880,53.46383683,18.54171923,12.47,99.9,2880,0
TARM,10/1/05,56.82094425,22.3259645,12.85,99.92,2976,59.46331998,21.55879766,14.78,99.96,2976,0
TARM,11/1/05,57.22935766,20.69246777,13.42,99.95,2880,58.56596183,19.09898953,16.25,99.94,2880,0
TARM,12/1/05,62.38250674,19.98193359,22.56,99.92,2976,62.39094423,18.352488,20.95,99.91,2976,0
TARM,1/1/06,66.64267813,18.20577744,18.47,99.98,2976,65.54576611,16.88690058,21.86,99.9,2976,0
TARM,2/1/06,65.26174129,21.14254272,26.28,99.98,2688,64.65343014,19.65567649,26.45,99.98,2688,0
TARM,3/1/06,65.93210033,21.67807412,20.53,99.91,2976,67.13281935,20.1014906,22.2,99.97,2976,0
TARM,4/1/06,65.95396536,17.1835619,30.08,99.96,2880,67.35450693,16.02068801,31,99.94,2880,0
TARM,5/1/06,65.63660283,22.42321332,12.75,99.96,2976,65.91044021,20.78200988,13.76,99.9,2976,0
TARM,6/1/06,63.6153994,19.25574248,26.68,99.94,2880,64.8966702,18.31469333,28.5,99.95,2880,0
TARM,7/1/06,59.69623325,19.38815499,16.11,99.97,2976,61.2760618,18.19951489,16.39,99.9,2976,0
TARM,8/1/06,61.6996372,21.94502969,24.03,99.98,2976,62.49392138,20.82454503,25.78,99.9,2976,0
TARM,9/1/06,67.68617038,23.54160467,32.99,99.98,2880,67.93573262,22.13860754,33.93,99.98,2880,0
TARM,10/1/06,69.68759419,19.4339579,26.92,99.92,2976,69.49969091,18.08673211,28.42,99.96,2976,0
TARM,11/1/06,60.94663546,17.6469383,26.57,99.95,2880,60.40294101,16.88955164,27.89,99.9,2880,0
TARM,12/1/06,78.19524395,9.861115218,43.11,95.41,164,75.40292698,8.968195549,47.24,90.57,164,0
TARM,1/1/07,58.30511951,17.34343474,21.37,100,1840,58.92819465,17.21755186,-2.13,99.8,1839,0
TARM,2/1/07,70.57930804,19.42959478,26.9,100,2688,70.84356768,18.25865896,10.4,100,2688,0
TARM,3/1/07,68.36783263,23.89236521,16.01,100,2976,69.27423722,22.26831124,16.8,100,2976,0
TARM,4/1/07,63.08498267,18.5897064,23.43,100,2880,64.23031946,17.77518598,25.34,100,2880,0
TARM,5/1/07,54.34081655,19.82578329,10.06,100,2976,55.85859877,19.51026662,10.53,100,2976,0
TARM,6/1/07,60.88842014,20.80223531,16.29,100,2880,61.47271524,19.79924635,17.48,100,2880,0
TARM,7/1/07,53.97050068,20.15332616,15.3,100,2976,54.99658942,19.46006882,17.81,100,2976,0
TARM,8/1/07,55.85339046,18.53827432,16.43,100,2976,56.53682121,17.763288,18.58,100,2976,0
TARM,9/1/07,56.22634722,20.81554096,17.75,100,2880,56.83273959,19.80014717,19.25,100,2880,0
TARM,10/1/07,65.12675741,25.54130722,12.81,100,2976,65.24786623,24.49955684,13.86,100,2976,0
TARM,11/1/07,64.7542778,17.95832804,21.87,100,2880,64.8720834,16.99371885,21.69,100,2880,0
TARM,12/1/07,59.42065189,20.45849859,18.64,100,2976,60.92213031,19.64225055,19.79,100,2976,0
TARM,1/1/08,58.8212197,18.63719091,14.38,99.89,2976,60.90940189,17.81814632,15.59,99.9,2976,0
TARM,2/1/08,64.36040227,18.18562592,25.64,100,2784,66.14002871,17.20547433,24.91,100,2784,0
TARM,3/1/08,68.40986896,21.93024933,16.46,100,2976,70.45994625,21.07948612,18.48,100,2976,0
TARM,4/1/08,62.13165278,21.54336392,22.42,100,2880,64.66629863,20.70220164,24.36,100,2880,0
TARM,5/1/08,58.35715389,19.37648937,24.35,100,2976,60.8889281,18.59873459,26.4,100,2976,0
TARM,6/1/08,58.13378472,22.53488859,16.97,100,2880,59.92018406,21.75390464,18.43,100,2880,0
TARM,7/1/08,59.46035283,20.29263512,14.89,100,2976,61.67269489,19.86243112,15.97,100,2976,0
TARM,8/1/08,60.62422039,23.61674052,9.8,100,2976,62.45810814,22.59483383,10.4,100,2976,0
TARM,9/1/08,47.06494789,18.02238227,15.46,100,2880,48.9870521,17.47275642,16.99,100,2880,0
TARM,10/1/08,67.81100799,21.65253614,22.77,100,2976,69.05556112,20.55255129,24.62,100,2976,0
TARM,11/1/08,56.79608335,23.24357716,13,100,2880,58.36905559,22.63463461,14.13,100,2880,0
TARM,12/1/08,50.92394154,18.56948992,16.08,99.62,2976,52.81446243,18.01270534,17.99,98.91,2976,0
TARM,1/1/09,63.89661291,19.16894833,20.58,100,2976,65.37203633,18.30269345,22.07,99.78,2976,0
TARM,2/1/09,70.06172618,18.78114095,22.7,100,2688,70.94501482,17.88475102,24.08,100,2688,0
TARM,3/1/09,70.24493955,21.03502674,15.23,100,2976,71.89993614,19.96199845,16,100,2976,0
TARM,4/1/09,56.97608331,18.67007551,22.43,100,2880,59.40395834,18.39692944,24.38,100,2880,0
TARM,5/1/09,62.24035949,18.94040671,22.29,100,2976,64.3205074,18.26955497,24.53,100,2976,0
TARM,6/1/09,55.80577432,20.82823131,19.27,100,2880,57.85077083,20.23781912,20.7,100,2880,0
TARM,7/1/09,56.45975474,24.30190951,11.9,100,2976,58.18022512,23.44664449,12.96,100,2976,0
TARM,8/1/09,63.93802752,22.27227374,16.53,100,2976,65.46617938,21.33542225,17.81,100,2976,0
TARM,9/1/09,49.25505906,22.15043392,10.19,100,2880,51.39898615,21.91398904,10.89,100,2880,0
TARM,10/1/09,62.04139541,19.51693775,21.83,100,2974,63.4273504,18.83937874,22.84,100,2974,0
TARM,11/1/09,54.99927428,18.27408825,16.38,100,2880,56.6038646,17.6442323,18.03,100,2880,0
TARM,12/1/09,63.48897853,18.44039228,21.1,100,2976,64.17799059,17.71934298,22.4,100,2976,0
TARM,1/1/10,68.02106853,16.65126908,19.7,100,2976,68.21065189,15.9958998,21.1,100,2976,0
TARM,2/1/10,66.69646576,20.95713363,16.9,100,2688,67.76778278,20.03308328,18.4,100,2688,0
TARM,3/1/10,73.98114915,19.9021221,28.4,100,2976,74.9911963,18.94264135,29.2,100,2976,0
TARM,4/1/10,64.0602778,21.72847517,19.3,100,2880,65.56513889,20.71185234,21.7,100,2880,0
TARM,5/1/10,61.55853497,20.69235025,22.3,100,2976,63.27029568,19.71643218,23.7,100,2976,0
TARM,6/1/10,57.16298608,17.33539741,26.5,100,2880,59.37197921,16.83761062,28.5,100,2880,0
TARM,7/1/10,54.18171114,19.14423421,19.9,100,2887,55.99695181,18.53711146,22.2,100,2887,0
TARM,8/1/10,,,,,0,,,,,0,0
TARM,9/1/10,65.80916813,21.38955401,28,100,1647,67.48196726,20.10326587,30.5,100,1647,0
TARM,10/1/10,60.19455644,20.21953302,17.7,100,2976,61.61535614,19.43102452,19.2,100,2976,0
TARM,11/1/10,46.50319996,15.74859932,13.9,94.1,2875,48.19363475,15.40159153,15,93.6,2875,0
TARM,12/1/10,55.73397179,18.29289522,12.8,100,2976,56.91407929,17.78121095,13.7,99.9,2976,0
TARM,1/1/11,75.4671371,17.65222165,27.4,100,2976,75.88783601,16.65902938,28,100,2976,0
TARM,2/1/11,70.66778275,16.63980447,29.5,100,2688,71.57793899,15.91485613,28.7,100,2688,0
TARM,3/1/11,68.09277549,21.76599564,19.1,100,2976,69.23659272,20.75628505,20.7,100,2976,0
TARM,4/1/11,66.84652781,23.18187561,24.3,100,2880,68.24222223,22.31162077,25.7,100,2880,0
TARM,5/1/11,58.81475135,17.73611045,27.1,100,2976,60.56354167,17.19212577,28.8,100,2976,0
TARM,6/1/11,62.0540278,21.95751368,24,100,2880,63.33284723,21.13660728,25.5,100,2880,0
TARM,7/1/11,55.32953622,19.42709737,24.3,100,2976,56.93010752,18.84193144,25.7,100,2976,0
TARM,8/1/11,59.98235882,22.58947875,12.7,100,2976,61.54287636,21.83135015,14.3,100,2976,0
TARM,9/1/11,63.15774304,26.98841934,14,100,2880,64.21288193,25.70546248,15.4,100,2880,0
TARM,10/1/11,60.33044356,25.2626817,12.9,100,2976,61.20339383,24.40635828,14.5,100,2976,0
TARM,11/1/11,56.10239586,18.39680129,19.3,100,2880,57.19170138,17.77352013,17.7,100,2880,0
TARM,12/1/11,59.51580013,21.08889678,15.4,100,2962,61.23153276,19.57362275,19.5,100,2962,0
TARM,1/1/12,62.15331858,18.72338946,18.9,100,2932,64.06412691,17.41927424,19.75,100,2932,0
TARM,2/1/12,60.75846983,21.90919898,17.19,100,2784,63.52650502,20.409456,21.67,100,2784,0
TARM,3/1/12,58.5543246,22.07186761,18.37,100,2976,62.6674563,20.29710127,23.25,100,2976,0
TARM,4/1/12,62.67617711,22.99260256,25.22,100,2880,66.55762844,21.23084485,29.53,100,2880,0
TARM,5/1/12,55.53643818,24.4899697,12.68,100,2976,59.12816865,23.31278348,15.59,100,2976,0
TARM,6/1/12,59.6303924,23.38050581,13.12,100,2880,63.3623125,22.06825515,17.08,100,2880,0
TARM,7/1/12,64.17572916,21.52253106,16.77,100,2976,67.93862233,19.56912022,20.71,100,2976,0
TARM,8/1/12,61.72318884,28.34339891,11.61,100,2976,64.95781589,26.81609431,14.86,100,2976,0
TARM,9/1/12,63.47174301,18.73117775,29.65,100,2880,66.86551391,17.23276124,33.51,100,2880,0
TARM,10/1/12,57.99374662,18.33659014,24.57,100,2976,61.56845759,17.434066,25.86,100,2976,0
TARM,11/1/12,60.14492182,17.31864116,23.03,100,2879,62.8713095,16.27735057,22.11,99.58,2879,0
TARM,12/1/12,65.74967071,16.7148146,19.6,100,2976,67.72565187,15.12262765,22.02,100,2976,0
TARM,1/1/13,68.77620631,21.25507372,22.53,100,2976,70.09949262,19.21386121,20.54,100,2976,0
TARM,2/1/13,69.13499999,19.78083399,21.94,100,2688,71.74401408,17.85458247,26.73,100,2688,0
TARM,3/1/13,69.18174059,20.68972554,27.68,100,2976,72.83109877,18.28546999,30.54,100,2976,0
TARM,4/1/13,63.52259376,18.52973808,16.08,100,2880,68.05054864,16.73138102,20.35,100,2880,0
TARM,5/1/13,64.17660283,22.42624983,17.39,100,2976,68.06556116,20.87122987,21.26,100,2976,0
TARM,6/1/13,64.63501738,21.88241578,27.25,100,2880,68.61085415,20.19184045,31.54,100,2880,0
TARM,7/1/13,66.7591835,21.58805729,22.34,100,2976,70.11296034,19.21238311,29.46,100,2976,0
TARM,8/1/13,55.7589079,20.9013795,12.07,100,2976,60.06459678,19.91591016,14.29,100,2976,0
TARM,9/1/13,56.91825348,24.21223643,14.04,100,2880,61.48689233,23.0347003,17.14,100,2880,0
TARM,10/1/13,67.15522513,21.24873273,26.86,100,2976,69.34569898,19.54614901,30.57,100,2976,0
TARM,11/1/13,57.39306252,20.27825801,12.84,100,2880,60.75694792,18.48829059,17.57,100,2880,0
TARM,12/1/13,54.85331652,21.64694888,15.67,100,2976,58.6560148,20.28846723,20.68,100,2976,0
TARM,1/1/14,59.47321908,20.06675382,19.58,100,2976,63.14468749,18.93288763,22.56,100,2976,0
TARM,2/1/14,59.90499629,20.86108642,15.84,100,2688,63.88177822,19.66393415,19.97,100,2688,0
TARM,3/1/14,64.73865932,23.06140171,13.95,100,2976,69.72262103,21.08567659,18.89,100,2976,0
TARM,4/1/14,58.9410764,27.63499788,11.01,100,2880,64.3264931,26.15484021,15.32,100,2880,0
TARM,5/1/14,64.40103163,23.02215757,25.53,100,2976,69.58327621,21.67725083,30.09,100,2976,0
TARM,6/1/14,63.18638889,22.8285194,15.68,100,2880,68.6265382,21.30893673,19.66,100,2880,0
TARM,7/1/14,65.08381383,18.9862538,20.14,100,2976,71.20014782,18.18423004,25.27,100,2976,0
TARM,8/1/14,57.65213041,23.20488967,16.19,100,2976,62.96592405,21.94829321,20.05,100,2976,0
TARM,9/1/14,53.47324307,20.33689881,14.7,100,2880,59.11644787,19.50023455,18.5,100,2880,0
TARM,10/1/14,60.73207326,22.04812316,24.9,100,2976,65.60541329,20.57380362,25.9,100,2976,0
TARM,11/1/14,66.356,19.03547934,21.04,100,2880,69.85151044,17.93469319,23.37,100,2880,0
TARM,12/1/14,65.39134162,16.54684098,19.06,100,2974,68.38037654,16.0534484,21.69,100,2974,0
TARM,1/1/15,63.69540993,20.78852857,20.89,100,2976,66.85852149,19.21850176,20.05,100,2976,0
TARM,2/1/15,59.43653651,20.0655618,24.06,100,2688,63.7142373,18.60557278,25.95,100,2688,0
TARM,3/1/15,67.74336692,17.4256017,29.05,100,2976,73.72736552,15.93607474,33.55,100,2976,0
TARM,4/1/15,72.55258084,21.17957937,24.02,100,2879,77.6312921,19.55354004,28.8,100,2879,0
TARM,5/1/15,64.08468079,21.65834029,14.24,100,2976,70.71027891,20.23557778,17.09,100,2976,0
TARM,6/1/15,55.67608681,17.42405217,11.35,99.45,2880,62.33874304,17.04625334,14.61,100,2880,0
TARM,7/1/15,58.85982528,23.11415001,11.73,100,2976,64.751045,22.13334296,15,100,2976,0
TARM,8/1/15,59.56092405,25.38807713,14.88,100,2976,64.86828964,24.43427615,18.92,100,2976,0
TARM,9/1/15,60.17655209,22.92075384,10.39,100,2880,65.89999305,21.82528719,14.15,100,2880,0
TARM,10/1/15,58.76437502,22.92688564,14.88,100,2976,62.85826613,21.87957292,20.56,100,2976,0
TARM,11/1/15,53.50706946,18.95259945,18.99,100,2880,57.85017016,17.92962033,23.49,100,2880,0
TARM,12/1/15,59.06459292,23.96535243,12.5,100,2972,60.62856999,22.72930714,15.28,100,2972,0
TARM,1/1/16,62.06241259,20.87739708,14.14,100,2976,63.47689175,19.6544966,17.18,100,2976,0
TARM,2/1/16,59.28005386,20.06548414,20.29,100,2784,61.48737428,19.04978148,22.94,100,2784,0
TARM,3/1/16,65.69548388,19.19203491,26.92,100,2976,68.17311828,18.06978456,29.48,100,2976,0
TARM,4/1/16,66.0024375,18.19485039,36.41,100,2880,68.76719445,16.97922361,38.15,100,2880,0
TARM,5/1/16,62.26987906,23.40661495,12.1,100,2976,64.17725466,22.68613122,13.15,100,2976,0
TARM,6/1/16,71.87432639,20.03408613,19.65,100,2880,73.6894861,18.65189501,22.65,100,2880,0
TARM,7/1/16,67.46366265,18.74213556,18.96,100,2976,69.77339042,17.46312933,21.39,100,2976,0